N789DL CYXS-KBLI

Flight info

Callsign N789DL
Flight time 1h 4m
Altitude 31000
Route YWL
Aircraft STAR/L-SDFGRWY/S

Departure

Time 2026-05-05 23:34
Airport Prince George (International) Airport (CYXS)

Arrival

Time 2026-05-06 00:38
Airport Bellingham International Airport (KBLI)
Time Latitude Longitude Altitude Speed Heading
2026-05-05 23:17 53.88331 -122.67686 2244 ft 0 kts 122°
2026-05-05 23:27 53.88324 -122.67711 2244 ft 1 kts 30°
2026-05-05 23:27 53.88353 -122.67683 2244 ft 7 kts 29°
2026-05-05 23:27 53.88429 -122.67636 2244 ft 14 kts 16°
2026-05-05 23:27 53.88509 -122.67564 2243 ft 12 kts
2026-05-05 23:28 53.88562 -122.67660 2243 ft 14 kts 300°
2026-05-05 23:28 53.88640 -122.67740 2242 ft 14 kts 27°
2026-05-05 23:28 53.88726 -122.67657 2242 ft 16 kts 30°
2026-05-05 23:28 53.88834 -122.67548 2243 ft 21 kts 31°
2026-05-05 23:29 53.88983 -122.67399 2241 ft 28 kts 31°
2026-05-05 23:29 53.89159 -122.67222 2240 ft 28 kts 30°
2026-05-05 23:29 53.89285 -122.67098 2241 ft 15 kts 30°
2026-05-05 23:29 53.89364 -122.67024 2243 ft 7 kts 28°
2026-05-05 23:30 53.89365 -122.67023 2243 ft 0 kts 28°
2026-05-05 23:31 53.89365 -122.67022 2243 ft 1 kts 28°
2026-05-05 23:31 53.89396 -122.66994 2244 ft 5 kts 28°
2026-05-05 23:31 53.89403 -122.66929 2244 ft 7 kts 159°
2026-05-05 23:32 53.89393 -122.66925 2244 ft 0 kts 167°
2026-05-05 23:33 53.89223 -122.66876 2240 ft 52 kts 170°
2026-05-05 23:33 53.88690 -122.66728 2241 ft 104 kts 170°
2026-05-05 23:33 53.87814 -122.66480 2257 ft 146 kts 170°
2026-05-05 23:33 53.86751 -122.66203 2529 ft 165 kts 171°
2026-05-05 23:34 53.85547 -122.65908 2920 ft 179 kts 172°
2026-05-05 23:34 53.84345 -122.65604 3831 ft 169 kts 172°
2026-05-05 23:34 53.83168 -122.65342 4655 ft 173 kts 174°
2026-05-05 23:34 53.81940 -122.65122 5382 ft 182 kts 174°
2026-05-05 23:35 53.80649 -122.64869 6119 ft 191 kts 174°
2026-05-05 23:35 53.79278 -122.64595 6622 ft 215 kts 174°
2026-05-05 23:35 53.77679 -122.64293 6697 ft 245 kts 174°
2026-05-05 23:35 53.75935 -122.63796 6886 ft 260 kts 168°
2026-05-05 23:36 53.74155 -122.63166 7294 ft 258 kts 170°
2026-05-05 23:36 53.72413 -122.62642 7961 ft 251 kts 171°
2026-05-05 23:36 53.70725 -122.62100 8705 ft 243 kts 171°
2026-05-05 23:36 53.69097 -122.61570 9570 ft 234 kts 172°
2026-05-05 23:37 53.67527 -122.61080 10457 ft 225 kts 173°
2026-05-05 23:37 53.66016 -122.60602 11353 ft 218 kts 173°
2026-05-05 23:37 53.64548 -122.60132 12204 ft 212 kts 173°
2026-05-05 23:37 53.63088 -122.59670 12949 ft 214 kts 174°
2026-05-05 23:38 53.61639 -122.59215 13623 ft 216 kts 174°
2026-05-05 23:38 53.60156 -122.58740 14231 ft 217 kts 174°
2026-05-05 23:38 53.58663 -122.58265 14824 ft 219 kts 174°
2026-05-05 23:38 53.57162 -122.57793 15433 ft 220 kts 174°
2026-05-05 23:39 53.55652 -122.57315 16041 ft 222 kts 174°
2026-05-05 23:39 53.54134 -122.56833 16671 ft 223 kts 174°
2026-05-05 23:39 53.52603 -122.56350 17319 ft 224 kts 174°
2026-05-05 23:39 53.51071 -122.55866 17902 ft 226 kts 175°
2026-05-05 23:40 53.49525 -122.55379 18496 ft 226 kts 175°
2026-05-05 23:40 53.47974 -122.54890 19041 ft 227 kts 175°
2026-05-05 23:40 53.46948 -122.54566 19426 ft 227 kts 175°
2026-05-05 23:40 53.45386 -122.54075 19987 ft 229 kts 175°
2026-05-05 23:41 53.43822 -122.53583 20561 ft 229 kts 175°
2026-05-05 23:41 53.42249 -122.53088 21127 ft 230 kts 175°
2026-05-05 23:41 53.40675 -122.52594 21699 ft 231 kts 175°
2026-05-05 23:41 53.39096 -122.52098 22281 ft 231 kts 175°
2026-05-05 23:42 53.37505 -122.51600 22803 ft 235 kts 175°
2026-05-05 23:42 53.35881 -122.51093 23333 ft 238 kts 175°
2026-05-05 23:42 53.34265 -122.50578 23912 ft 235 kts 176°
2026-05-05 23:42 53.32669 -122.50081 24430 ft 233 kts 176°
2026-05-05 23:43 53.31065 -122.49587 24935 ft 234 kts 176°
2026-05-05 23:43 53.29467 -122.49084 25449 ft 234 kts 176°
2026-05-05 23:43 53.27866 -122.48582 25943 ft 234 kts 176°
2026-05-05 23:43 53.26263 -122.48084 26456 ft 234 kts 176°
2026-05-05 23:44 53.24660 -122.47584 26981 ft 235 kts 176°
2026-05-05 23:44 53.23060 -122.47084 27539 ft 234 kts 176°
2026-05-05 23:44 53.21450 -122.46584 28054 ft 235 kts 177°
2026-05-05 23:44 53.19841 -122.46085 28566 ft 236 kts 177°
2026-05-05 23:45 53.18227 -122.45580 29107 ft 235 kts 177°
2026-05-05 23:45 53.16622 -122.45083 29642 ft 235 kts 177°
2026-05-05 23:45 53.15013 -122.44585 30133 ft 235 kts 177°
2026-05-05 23:45 53.13404 -122.44085 30538 ft 236 kts 177°
2026-05-05 23:46 53.11801 -122.43590 30918 ft 238 kts 177°
2026-05-05 23:46 53.10144 -122.43082 31188 ft 246 kts 176°
2026-05-05 23:46 53.08454 -122.42551 31560 ft 247 kts 176°
2026-05-05 23:46 53.06765 -122.42026 31942 ft 248 kts 177°
2026-05-05 23:47 53.05063 -122.41507 32291 ft 250 kts 176°
2026-05-05 23:47 53.03346 -122.40976 32613 ft 252 kts 176°
2026-05-05 23:47 53.01590 -122.40435 32787 ft 262 kts 176°
2026-05-05 23:47 52.99758 -122.39873 32867 ft 274 kts 176°
2026-05-05 23:48 52.97845 -122.39281 32903 ft 286 kts 175°
2026-05-05 23:48 52.95853 -122.38667 32921 ft 296 kts 175°
2026-05-05 23:48 52.91689 -122.37387 32937 ft 311 kts 175°
2026-05-05 23:49 52.87350 -122.36057 32946 ft 321 kts 175°
2026-05-05 23:49 52.82914 -122.34703 32953 ft 327 kts 174°
2026-05-05 23:50 52.78397 -122.33321 32960 ft 332 kts 174°
2026-05-05 23:50 52.73832 -122.31931 32951 ft 335 kts 174°
2026-05-05 23:51 52.69245 -122.30539 32972 ft 335 kts 174°
2026-05-05 23:51 52.64661 -122.29147 32976 ft 335 kts 174°
2026-05-05 23:52 52.60074 -122.27759 32980 ft 335 kts 174°
2026-05-05 23:52 52.55481 -122.26372 32978 ft 336 kts 174°
2026-05-05 23:53 52.50911 -122.24996 32983 ft 336 kts 174°
2026-05-05 23:53 52.46307 -122.23610 32982 ft 336 kts 174°
2026-05-05 23:54 52.41699 -122.22227 32981 ft 337 kts 174°
2026-05-05 23:54 52.37095 -122.20850 32980 ft 337 kts 174°
2026-05-05 23:55 52.32483 -122.19471 32990 ft 337 kts 174°
2026-05-05 23:55 52.27865 -122.18099 32982 ft 337 kts 175°
2026-05-05 23:56 52.23221 -122.17557 32981 ft 334 kts 183°
2026-05-05 23:56 52.18574 -122.17395 32980 ft 332 kts 187°
2026-05-05 23:57 52.14021 -122.18003 32974 ft 331 kts 188°
2026-05-05 23:57 52.09441 -122.18518 32979 ft 330 kts 190°
2026-05-05 23:58 52.04865 -122.19024 32983 ft 329 kts 189°
2026-05-05 23:58 52.00281 -122.19542 32972 ft 331 kts 189°
2026-05-05 23:59 51.95686 -122.20070 32977 ft 331 kts 189°
2026-05-05 23:59 51.91086 -122.20594 32977 ft 331 kts 189°
2026-05-06 00:00 51.86486 -122.21115 32981 ft 331 kts 189°
2026-05-06 00:00 51.81885 -122.21635 32971 ft 331 kts 189°
2026-05-06 00:01 51.77309 -122.22154 32970 ft 332 kts 189°
2026-05-06 00:01 51.72708 -122.22674 32969 ft 332 kts 189°
2026-05-06 00:02 51.68104 -122.23191 32965 ft 332 kts 189°
2026-05-06 00:02 51.63492 -122.23709 32966 ft 332 kts 189°
2026-05-06 00:03 51.58882 -122.24227 32961 ft 332 kts 189°
2026-05-06 00:03 51.54281 -122.24741 32963 ft 332 kts 189°
2026-05-06 00:04 51.49670 -122.25253 32964 ft 331 kts 189°
2026-05-06 00:04 51.45065 -122.25771 32964 ft 331 kts 189°
2026-05-06 00:05 51.38190 -122.26533 32963 ft 332 kts 189°
2026-05-06 00:06 51.33603 -122.27042 32952 ft 328 kts 189°
2026-05-06 00:06 51.29047 -122.27547 32964 ft 329 kts 189°
2026-05-06 00:07 51.24479 -122.28049 32969 ft 329 kts 189°
2026-05-06 00:07 51.19908 -122.28555 32970 ft 329 kts 189°
2026-05-06 00:08 51.15337 -122.29056 32966 ft 330 kts 189°
2026-05-06 00:08 51.10725 -122.29565 32963 ft 334 kts 189°
2026-05-06 00:09 51.06080 -122.30074 32962 ft 335 kts 189°
2026-05-06 00:09 51.01428 -122.30581 32955 ft 334 kts 189°
2026-05-06 00:10 50.96773 -122.31092 32945 ft 336 kts 189°
2026-05-06 00:10 50.92124 -122.31599 32960 ft 334 kts 189°
2026-05-06 00:11 50.87467 -122.32103 32959 ft 336 kts 189°
2026-05-06 00:11 50.82825 -122.32611 32957 ft 337 kts 189°
2026-05-06 00:12 50.78141 -122.33115 32961 ft 338 kts 189°
2026-05-06 00:12 50.73447 -122.33619 32945 ft 339 kts 189°
2026-05-06 00:13 50.68759 -122.34131 32956 ft 334 kts 189°
2026-05-06 00:13 50.64105 -122.34632 32945 ft 337 kts 189°
2026-05-06 00:14 50.59428 -122.35130 32950 ft 338 kts 188°
2026-05-06 00:14 50.54712 -122.35634 32944 ft 340 kts 188°
2026-05-06 00:15 50.50003 -122.36135 32936 ft 339 kts 188°
2026-05-06 00:15 50.47643 -122.36394 32740 ft 345 kts 189°
2026-05-06 00:15 50.45202 -122.36656 32250 ft 356 kts 188°
2026-05-06 00:15 50.42728 -122.36907 31785 ft 358 kts 188°
2026-05-06 00:16 50.40233 -122.37189 31264 ft 360 kts 188°
2026-05-06 00:16 50.37744 -122.37439 30772 ft 357 kts 188°
2026-05-06 00:16 50.35281 -122.37708 30293 ft 353 kts 188°
2026-05-06 00:16 50.32839 -122.37973 29794 ft 351 kts 188°
2026-05-06 00:17 50.30404 -122.38212 29230 ft 348 kts 188°
2026-05-06 00:17 50.27991 -122.38490 28679 ft 348 kts 188°
2026-05-06 00:17 50.25578 -122.38735 28146 ft 347 kts 187°
2026-05-06 00:17 50.23206 -122.38981 27629 ft 344 kts 188°
2026-05-06 00:18 50.20830 -122.39245 27111 ft 341 kts 187°
2026-05-06 00:18 50.18471 -122.39479 26605 ft 339 kts 188°
2026-05-06 00:18 50.16102 -122.39740 26081 ft 343 kts 188°
2026-05-06 00:18 50.13700 -122.39991 25593 ft 348 kts 187°
2026-05-06 00:19 50.11273 -122.40245 25115 ft 351 kts 188°
2026-05-06 00:19 50.08830 -122.40499 24657 ft 352 kts 188°
2026-05-06 00:19 50.06420 -122.40747 24224 ft 343 kts 188°
2026-05-06 00:19 50.04019 -122.41019 23763 ft 349 kts 187°
2026-05-06 00:20 50.01580 -122.41253 23272 ft 352 kts 187°
2026-05-06 00:20 49.99133 -122.41523 22737 ft 353 kts 188°
2026-05-06 00:20 49.96680 -122.41775 22208 ft 353 kts 187°
2026-05-06 00:20 49.94251 -122.42020 21719 ft 347 kts 187°
2026-05-06 00:21 49.91855 -122.42280 21213 ft 343 kts 187°
2026-05-06 00:21 49.89479 -122.42528 20713 ft 341 kts 187°
2026-05-06 00:21 49.87116 -122.42771 20239 ft 339 kts 187°
2026-05-06 00:21 49.84778 -122.43014 19780 ft 336 kts 187°
2026-05-06 00:22 49.82458 -122.43256 19322 ft 332 kts 188°
2026-05-06 00:22 49.80167 -122.43494 18881 ft 328 kts 188°
2026-05-06 00:22 49.77894 -122.43737 18438 ft 326 kts 187°
2026-05-06 00:22 49.75640 -122.43960 17963 ft 323 kts 187°
2026-05-06 00:23 49.73398 -122.44197 17468 ft 321 kts 187°
2026-05-06 00:23 49.71171 -122.44426 16974 ft 319 kts 187°
2026-05-06 00:23 49.68976 -122.44655 16512 ft 314 kts 186°
2026-05-06 00:23 49.66794 -122.44873 16043 ft 314 kts 186°
2026-05-06 00:24 49.64646 -122.45096 15579 ft 312 kts 186°
2026-05-06 00:24 49.62484 -122.45321 15139 ft 310 kts 187°
2026-05-06 00:24 49.60333 -122.45554 14676 ft 310 kts 186°
2026-05-06 00:24 49.58182 -122.45758 14276 ft 309 kts 186°
2026-05-06 00:25 49.56045 -122.45988 13879 ft 307 kts 186°
2026-05-06 00:25 49.53921 -122.46201 13443 ft 305 kts 185°
2026-05-06 00:25 49.51833 -122.46491 13014 ft 299 kts 186°
2026-05-06 00:25 49.49750 -122.46590 12580 ft 299 kts 183°
2026-05-06 00:26 49.47678 -122.46834 12161 ft 298 kts 187°
2026-05-06 00:26 49.45622 -122.47061 11833 ft 293 kts 184°
2026-05-06 00:26 49.43612 -122.47241 11589 ft 287 kts 185°
2026-05-06 00:26 49.41628 -122.47472 11348 ft 284 kts 185°
2026-05-06 00:27 49.40328 -122.47600 11189 ft 280 kts 184°
2026-05-06 00:27 49.38407 -122.47780 10950 ft 273 kts 185°
2026-05-06 00:27 49.36519 -122.47991 10707 ft 269 kts 185°
2026-05-06 00:27 49.34675 -122.48170 10470 ft 264 kts 184°
2026-05-06 00:28 49.32856 -122.48352 10234 ft 260 kts 184°
2026-05-06 00:28 49.31058 -122.48545 10004 ft 257 kts 184°
2026-05-06 00:28 49.29282 -122.48618 9755 ft 254 kts 176°
2026-05-06 00:28 49.27519 -122.48646 9425 ft 255 kts 187°
2026-05-06 00:29 49.25742 -122.49041 8914 ft 260 kts 191°
2026-05-06 00:29 49.23950 -122.49537 8414 ft 263 kts 192°
2026-05-06 00:29 49.22152 -122.50020 7920 ft 262 kts 188°
2026-05-06 00:29 49.20339 -122.50261 7425 ft 261 kts 186°
2026-05-06 00:30 49.18568 -122.50568 6946 ft 258 kts 188°
2026-05-06 00:30 49.16771 -122.50902 6463 ft 256 kts 187°
2026-05-06 00:30 49.15028 -122.51173 5974 ft 254 kts 187°
2026-05-06 00:30 49.13253 -122.51493 5472 ft 253 kts 188°
2026-05-06 00:31 49.11535 -122.51787 4991 ft 251 kts 189°
2026-05-06 00:31 49.09806 -122.52081 4489 ft 249 kts 189°
2026-05-06 00:31 49.08099 -122.52375 3987 ft 245 kts 188°
2026-05-06 00:31 49.06438 -122.52652 3493 ft 236 kts 188°
2026-05-06 00:32 49.04829 -122.52930 2996 ft 230 kts 188°
2026-05-06 00:32 49.03258 -122.53202 2497 ft 225 kts 187°
2026-05-06 00:32 49.01718 -122.53461 2012 ft 221 kts 186°
2026-05-06 00:32 49.00220 -122.53688 1801 ft 208 kts 187°
2026-05-06 00:33 48.98862 -122.53857 1877 ft 183 kts 183°
2026-05-06 00:33 48.97652 -122.53842 1941 ft 166 kts 179°
2026-05-06 00:33 48.96535 -122.53794 1958 ft 156 kts 181°
2026-05-06 00:33 48.95491 -122.53807 1979 ft 145 kts 182°
2026-05-06 00:34 48.94518 -122.53828 1987 ft 135 kts 180°
2026-05-06 00:34 48.93606 -122.53812 2003 ft 128 kts 181°
2026-05-06 00:34 48.92713 -122.53795 2001 ft 134 kts 182°
2026-05-06 00:34 48.91715 -122.53803 2006 ft 153 kts 182°
2026-05-06 00:35 48.90627 -122.53810 1997 ft 150 kts 181°
2026-05-06 00:35 48.89665 -122.53794 1944 ft 134 kts 181°
2026-05-06 00:35 48.88737 -122.53782 1686 ft 131 kts 181°
2026-05-06 00:35 48.87857 -122.53788 1455 ft 125 kts 181°
2026-05-06 00:36 48.86995 -122.53802 1191 ft 124 kts 181°
2026-05-06 00:36 48.86152 -122.53795 986 ft 115 kts 180°
2026-05-06 00:36 48.85357 -122.53768 756 ft 112 kts 179°
2026-05-06 00:36 48.84607 -122.53729 610 ft 101 kts 178°
2026-05-06 00:37 48.83899 -122.53711 485 ft 103 kts 181°
2026-05-06 00:37 48.83176 -122.53731 452 ft 105 kts 181°
2026-05-06 00:37 48.82421 -122.53777 378 ft 112 kts 180°
2026-05-06 00:37 48.81652 -122.53747 407 ft 110 kts 178°
2026-05-06 00:38 48.80857 -122.53751 303 ft 116 kts 182°
2026-05-06 00:38 48.80111 -122.53753 174 ft 96 kts 181°
2026-05-06 00:38 48.79545 -122.53762 157 ft 52 kts 179°
2026-05-06 00:38 48.79418 -122.53757 157 ft 8 kts 178°
2026-05-06 00:39 48.79348 -122.53755 158 ft 16 kts 180°
2026-05-06 00:39 48.79297 -122.53666 159 ft 11 kts 48°
2026-05-06 00:39 48.79263 -122.53584 159 ft 13 kts 180°
2026-05-06 00:39 48.79171 -122.53583 160 ft 14 kts 172°
2026-05-06 00:40 48.79193 -122.53478 159 ft 18 kts 41°
2026-05-06 00:40 48.79289 -122.53364 159 ft 17 kts 38°
2026-05-06 00:40 48.79284 -122.53247 159 ft 10 kts 135°
2026-05-06 00:40 48.79312 -122.53203 159 ft 12 kts
2026-05-06 00:41 48.79361 -122.53231 159 ft 0 kts 308°
2026-05-06 00:41 48.79362 -122.53233 159 ft 1 kts 308°
2026-05-06 00:41 48.79365 -122.53238 159 ft 0 kts 309°